User: anonymous   Login
Location: Battersea Observatory
(44.4318°N, 76.3841°W)
Time: 22:05:42
(UTC-05:00)
Language:

Tiros 1 - Orbit

View from above orbital plane
View from above orbital plane
View from above satellite
View from above satellite

Ground track
Ground track

The orbit data is extracted from the following two-line orbital elements,

1 00029U 60002B   22022.56453654  .00000038  00000-0  36557-4 0  9996
2 00029  48.3802  71.7501 0024403 212.8586 147.0810 14.74509455304736
Epoch (UTC): 22 January 2022 13:32:55
Eccentricity: 0.0024403
inclination: 48.3802°
perigee height: 629 km
apogee height: 664 km
right ascension of ascending node: 71.7501°
argument of perigee: 212.8586°
revolutions per day: 14.74509455
mean anomaly at epoch: 147.0810°
orbit number at epoch: 30473

The dashed part of the orbit path shows where the satellite is in the earth's shadow,  

DLR